Content
SEND FEEDBACK

Daily
Averages
Monthly
Summary
Jamaica

MONTEGO BAY, JAMAICA


Home > Caribbean > Jamaica
Elevation: 10 feet     Latitude: 18 30N     Longitude: 077 55W

WEATHER
 
SELECT A DAY
Number of Records: 172,642;   Date Range: 7/1/96 - 11/21/14
 
SHARE

PRINT THIS DATA

[ ← Previous Day ]
WEATHER ALMANAC - FEBRUARY 19, 2013
[ Next Day → ]
[ °C ]   °F
Weather ElementAverageHighLow
Temperature76.8 °F84.2 °F (1:00 pm)71.6 °F (7:00 am)
Dewpoint70.1 °F73.4 °F (11:00 am)66.2 °F (2:00 am)
Humidity78.9 %94 % (7:00 am)65 % (1:00 pm)
Barometer30.00 in30.07 in (10:00 am)29.92 in (4:00 pm)
Wind Speed10 mph23 mph (3:00 pm)
Weather ElementAverage
Visibility7.8 mi
Wind DirectionESE (125.4 °)

Weather ElementTotal
Precipitation---
Cooling Degree Days12.9 (Base 65)
Growing Degree Days27.9 (Base 50)
Averaged from 28 records on February 19, 2013
WEATHER CONDITIONS BREAKOUT
WIND DIRECTION BREAKOUT
WEATHER BY HOUR - FEBRUARY 19, 2013
[ °C ]   °F
Local TimeTemperatureDewpointHumidityBarometerVisibilityWind DirectionWind SpeedGust SpeedPrecipitationEventsConditions
1:00 AM74.0 °F67.0 °F73 %30.01 in12.0 miESE (120°)6.9 mphHaze
1:00 AM73.4 °F68.0 °F83 %30.01 in6.2 miESE (120°)6.9 mphMostly Cloudy
2:00 AM73.4 °F66.2 °F78 %29.98 in6.2 miEast (100°)5.8 mphMostly Cloudy
3:00 AM73.4 °F66.2 °F78 %29.98 in6.2 miEast (90°)10.4 mphScattered Clouds
4:00 AM73.0 °F67.0 °F76 %29.98 in12.0 miSW (220°)4.6 mphMostly Cloudy
4:00 AM73.4 °F66.2 °F78 %29.98 in6.2 miSW (220°)4.6 mphMostly Cloudy
5:00 AM73.4 °F68.0 °F83 %29.98 in6.2 miWNW (290°)2.3 mphMostly Cloudy
6:00 AM73.4 °F68.0 °F83 %30.01 in6.2 miESE (120°)6.9 mphRainLight Rain Showers
7:00 AM72.0 °F69.0 °F88 %30.03 in14.0 miSSW (200°)4.6 mphRainLight Rain Showers
7:00 AM71.6 °F69.8 °F94 %30.01 in6.2 miSSW (200°)4.6 mphRainLight Rain Showers
7:05 AM71.6 °F69.8 °F94 %30.01 in6.2 miSSW (200°)4.6 mphRainLight Rain Showers
8:00 AM73.4 °F69.8 °F88 %30.04 in6.2 miSSE (160°)2.3 mphRainLight Rain Showers
9:00 AM73.4 °F71.6 °F94 %30.04 in6.2 miESE (120°)2.3 mphRainLight Rain Showers
10:00 AM77.0 °F71.6 °F83 %30.06 in6.2 miNE (50°)8.1 mphMostly Cloudy
10:00 AM76.0 °F71.0 °F81 %30.07 in16.0 miNE (50°)8.1 mphRainLight Rain Showers
11:00 AM78.8 °F73.4 °F83 %30.04 in6.2 miENE (60°)11.5 mphScattered Clouds
12:00 PM78.8 °F71.6 °F78 %30.04 in6.2 miEast (80°)10.4 mphRainLight Rain Showers
1:00 PM83.0 °F73.0 °F65 %30.00 in16.0 miEast (80°)19.6 mphRainLight Rain Showers
1:00 PM84.2 °F73.4 °F70 %29.98 in6.2 miEast (80°)19.6 mphPartly Cloudy
2:00 PM84.2 °F73.4 °F70 %29.95 in6.2 miEast (90°)17.3 mphPartly Cloudy
3:00 PM84.2 °F73.4 °F70 %29.95 in6.2 miENE (70°)23.0 mphPartly Cloudy
4:00 PM82.4 °F71.6 °F70 %29.92 in6.2 miEast (80°)23.0 mphPartly Cloudy
5:00 PM80.6 °F71.6 °F74 %29.95 in6.2 miEast (80°)20.7 mphPartly Cloudy
6:00 PM80.6 °F71.6 °F74 %29.95 in6.2 miEast (90°)18.4 mphScattered Clouds
8:00 PM78.8 °F71.6 °F78 %29.98 in6.2 miEast (100°)13.8 mphMostly Cloudy
10:00 PM77.0 °F69.0 °F71 %30.03 in12.0 miSSE (160°)3.5 mphPartly Cloudy
10:00 PM77.0 °F69.8 °F78 %30.01 in6.2 miSSE (160°)3.5 mphPartly Cloudy
11:00 PM78.8 °F69.8 °F74 %30.01 in6.2 miESE (120°)12.7 mphPartly Cloudy
Hourly data recorded from MKJS, located miles away from Montego Bay, Jamaica







STORIES FROM OUR PARTNERS